GFSWCAN_prec_precacc_333.txt.gz
Total_Precipitation_Accumulation
2.36 2.36 2.45 2.19 1.92 1.60 1.54 1.40 1.81 2.27 2.10 2.01 2.17 1.88 1.72 1.47 1.55 2.03 1.28 1.16 2.61 3.12 0.91 0.21 0.26 0.64 1.11 1.16 1.51 1.31 1.53 0.95 0.99 1.07 0.91 0.52 0.40 0.32 0.18 0.22 0.23 0.36 0.57 0.43 0.50 0.71 0.28 0.07 0.07 0.20 0.30 0.15 0.06 0.12
2.33 2.13 2.01 2.06 2.23 2.36 1.98 1.95 2.21 2.36 2.02 1.84 1.68 1.55 1.60 1.51 1.56 2.28 1.54 0.92 1.68 2.63 1.64 0.41 0.29 0.26 0.54 0.84 1.35 1.54 1.40 0.77 1.17 1.34 1.10 1.03 0.75 0.38 0.20 0.26 0.03 0.28 0.34 0.53 0.59 0.32 0.13 0.12 0.24 0.26 0.25 0.31 0.16 0.17
2.76 2.42 2.30 2.16 1.94 2.18 2.77 2.94 2.66 2.46 2.05 1.83 1.59 1.54 1.63 1.52 1.53 2.22 1.66 1.41 1.99 2.51 1.48 0.59 0.28 0.11 0.19 0.30 0.66 1.49 1.11 0.89 1.33 1.27 1.95 1.69 1.14 0.45 0.43 0.27 0.20 0.15 0.19 0.55 0.42 0.14 0.13 0.21 0.19 0.18 0.23 0.20 0.07 0.07
3.11 2.68 2.51 2.57 2.56 2.14 2.28 2.92 2.97 2.66 2.29 1.97 1.76 1.65 1.44 1.38 1.58 2.14 1.59 1.25 2.14 3.31 3.05 0.74 0.10 0.06 0.10 0.30 0.51 0.80 1.10 1.20 1.47 1.78 2.54 2.26 1.18 0.47 0.37 0.29 0.35 0.31 0.43 0.47 0.44 0.17 0.26 0.18 0.09 0.12 0.14 0.10 0.05 0.03
3.64 3.37 2.79 2.48 2.66 2.76 2.46 2.39 2.34 2.30 2.23 1.89 1.67 1.66 1.66 1.72 1.96 1.87 1.44 1.30 1.34 2.46 2.70 0.87 0.27 0.11 0.10 0.28 0.53 0.73 1.02 1.62 1.70 2.07 2.16 1.30 0.70 0.75 0.69 0.61 0.57 0.39 0.70 0.82 0.59 0.28 0.54 0.27 0.09 0.08 0.16 0.12 0.11 0.16
4.09 4.23 4.02 3.20 2.59 2.51 2.68 2.34 2.27 2.15 2.10 1.76 1.66 1.73 1.91 2.08 2.54 2.63 3.42 2.03 1.21 1.75 4.59 2.97 0.86 0.26 0.16 0.28 0.56 0.78 0.89 1.16 1.84 2.22 1.78 1.07 0.62 1.41 2.01 0.84 0.36 0.27 0.27 0.47 0.51 0.22 0.24 0.17 0.08 0.04 0.12 0.11 0.16 0.21
3.77 4.12 4.78 4.83 3.69 3.12 3.09 2.47 2.26 2.21 2.19 2.01 1.99 2.00 2.00 2.30 2.42 2.97 3.26 1.78 1.51 2.43 5.24 4.08 1.95 0.71 0.35 0.45 0.79 0.96 1.04 1.20 1.56 2.22 1.67 1.02 0.77 2.04 2.51 0.97 0.19 0.12 0.06 0.05 0.14 0.36 0.31 0.10 0.14 0.08 0.14 0.12 0.10 0.07
3.44 3.62 4.07 5.03 5.11 4.46 3.75 2.98 2.50 2.49 2.50 2.40 2.48 2.49 2.49 2.74 3.04 2.85 2.02 1.72 2.00 3.36 4.38 4.08 2.00 0.87 0.60 0.77 1.08 1.11 1.17 1.34 1.66 1.85 1.37 0.91 1.04 1.70 1.68 0.30 0.10 0.08 0.06 0.04 0.06 0.15 0.28 0.13 0.07 0.09 0.11 0.10 0.09 0.05
3.31 3.23 3.25 3.82 4.19 4.60 4.65 4.30 3.41 3.12 3.15 3.30 3.46 3.43 3.80 3.70 3.02 2.46 2.27 2.57 2.82 4.25 5.85 3.40 1.25 0.90 0.86 0.71 0.92 1.12 1.33 1.87 1.81 1.56 1.27 1.12 1.10 1.19 0.67 0.33 0.17 0.15 0.25 0.22 0.05 0.01 0.02 0.06 0.07 0.06 0.08 0.12 0.19 0.16
2.97 3.00 2.98 3.27 2.94 3.24 4.05 4.40 4.82 4.29 4.31 4.44 4.28 4.72 4.79 3.71 3.09 3.22 4.08 4.98 5.57 5.12 4.08 2.13 0.86 0.96 0.96 0.95 1.44 1.64 1.71 1.65 1.57 1.09 1.26 1.42 0.83 0.39 0.20 0.17 0.22 0.21 0.21 0.22 0.33 0.31 0.30 0.23 0.13 0.10 0.16 0.22 0.31 0.28
2.79 2.81 2.78 3.20 2.78 2.64 3.29 4.81 5.13 5.03 5.34 4.85 4.63 4.06 4.00 3.47 4.03 4.87 5.38 4.79 4.33 3.65 2.41 1.48 1.09 1.04 1.01 1.26 1.54 1.78 1.87 1.57 1.53 0.80 1.20 1.08 0.56 0.19 0.11 0.09 0.06 0.09 0.15 0.20 0.35 0.39 0.44 0.53 0.46 0.35 0.24 0.22 0.21 0.26
2.81 2.93 2.87 3.10 2.69 2.86 3.29 4.22 4.92 5.12 4.99 4.34 3.69 3.71 4.26 4.53 5.07 4.78 3.64 2.37 2.16 1.74 1.37 1.06 0.72 0.81 1.16 1.38 1.94 2.26 1.96 1.63 1.26 0.77 1.27 0.55 0.19 0.05 0.08 0.13 0.17 0.18 0.23 0.26 0.33 0.45 0.47 0.53 0.53 0.46 0.40 0.38 0.38 0.38
2.70 2.81 3.09 3.36 3.01 3.34 3.37 3.53 3.72 4.28 4.36 4.74 4.78 4.97 4.43 3.87 3.53 2.52 1.48 1.05 0.96 0.78 0.75 0.74 0.83 0.97 1.15 1.44 2.25 2.13 2.06 1.47 0.92 1.06 0.68 0.24 0.09 0.12 0.22 0.17 0.12 0.07 0.14 0.30 0.46 0.59 0.52 0.40 0.31 0.40 0.49 0.48 0.49 0.46
2.80 2.71 3.12 3.68 3.68 3.75 3.77 4.01 4.11 4.31 5.06 6.08 5.17 4.52 2.94 2.10 0.97 0.48 0.46 0.51 0.46 0.57 0.66 0.62 0.94 1.02 1.08 1.42 1.68 1.85 1.25 1.15 1.09 0.66 0.26 0.15 0.21 0.29 0.26 0.23 0.24 0.16 0.19 0.37 0.52 0.51 0.44 0.46 0.47 0.45 0.56 0.65 0.64 0.74
3.07 3.26 3.92 4.31 4.11 4.13 3.93 4.30 4.71 4.69 5.50 5.24 4.19 2.69 1.46 0.71 0.46 0.53 0.49 0.51 0.67 0.68 0.74 0.90 1.07 1.03 1.29 1.68 1.46 1.43 1.45 0.88 0.34 0.21 0.21 0.32 0.45 0.55 0.56 0.57 0.54 0.41 0.42 0.57 0.74 0.74 0.70 0.46 0.38 0.58 0.84 0.83 0.67 0.69
3.84 5.05 5.17 4.56 4.11 4.23 4.94 5.56 6.07 5.87 5.74 4.51 3.39 1.83 0.83 0.53 0.57 0.66 0.65 0.72 0.75 0.79 0.95 1.38 1.53 1.52 1.64 1.60 1.46 0.93 0.76 0.41 0.36 0.52 0.65 0.63 0.73 0.82 0.86 0.88 0.94 0.97 0.96 0.89 1.22 1.39 1.10 0.79 0.78 0.80 0.71 0.83 0.81 0.74
5.58 6.22 4.64 3.57 4.17 5.08 5.40 6.05 7.21 6.81 5.75 4.30 1.93 0.88 0.77 0.74 0.81 0.90 0.80 0.80 0.82 1.16 1.24 1.79 2.04 1.26 1.07 1.14 0.53 0.27 0.34 0.34 0.56 0.78 0.90 0.89 0.90 0.79 0.69 0.77 0.93 1.10 1.26 1.08 1.13 1.23 1.36 1.16 0.72 0.40 0.54 0.61 0.51 0.51
5.20 3.56 3.07 3.69 5.15 6.53 8.06 6.89 6.07 5.44 4.01 2.07 0.89 0.58 0.58 0.66 0.69 0.61 0.59 0.72 1.01 1.29 1.38 1.79 1.54 1.39 1.12 0.68 0.36 0.31 0.36 0.40 0.53 0.66 0.86 0.90 0.80 0.81 0.76 0.85 0.89 0.85 0.85 0.78 0.67 0.61 0.48 0.34 0.36 0.46 0.48 0.42 0.33 0.33
3.51 2.76 2.90 3.69 4.18 5.51 6.49 6.01 4.56 3.70 1.80 0.89 0.63 0.51 0.45 0.49 0.48 0.51 0.57 0.74 1.04 1.07 1.31 1.43 1.61 1.12 0.55 0.40 0.39 0.40 0.48 0.54 0.63 0.63 0.76 0.72 0.60 0.56 0.48 0.41 0.39 0.36 0.38 0.36 0.31 0.35 0.31 0.26 0.29 0.24 0.26 0.16 0.14 0.11
4.33 4.49 4.16 4.29 3.95 5.18 5.34 4.52 3.16 1.83 0.99 0.63 0.56 0.47 0.41 0.61 0.53 0.43 0.51 0.63 0.79 1.23 1.77 1.57 0.90 0.63 0.72 0.77 0.77 0.73 0.80 0.79 0.59 0.41 0.43 0.36 0.24 0.12 0.06 0.04 0.05 0.03 0.04 0.04 0.05 0.06 0.06 0.05 0.04 0.04 0.06 0.09 0.08 0.08
7.84 7.01 6.15 5.78 6.33 6.14 4.74 2.81 1.93 1.31 0.74 0.57 0.55 0.42 0.50 0.46 0.53 0.55 0.68 0.77 1.43 1.80 1.38 0.82 0.69 0.78 0.79 0.84 0.97 0.89 0.79 0.52 0.30 0.22 0.16 0.08 0.03 0.02 0.01 0.01 0.02 0.02 0.03 0.02 0.04 0.02 0.05 0.07 0.07 0.04 0.04 0.06 0.07 0.10
6.86 6.43 7.56 7.35 7.31 6.46 4.71 2.69 1.41 0.93 0.73 0.75 0.56 0.54 0.68 0.61 0.54 0.72 1.03 1.44 1.61 1.01 0.74 0.66 0.66 0.72 0.64 0.62 0.53 0.37 0.28 0.12 0.07 0.05 0.05 0.06 0.05 0.03 0.02 0.02 0.04 0.04 0.04 0.05 0.06 0.07 0.06 0.07 0.09 0.07 0.06 0.05 0.05 0.06
5.03 5.18 5.59 5.80 5.67 4.80 3.59 1.76 1.26 1.01 0.71 0.67 0.60 0.73 0.77 0.65 0.62 0.80 1.21 1.12 0.83 0.70 0.63 0.54 0.52 0.40 0.32 0.23 0.16 0.10 0.10 0.09 0.05 0.02 0.02 0.02 0.02 0.02 0.02 0.02 0.04 0.06 0.04 0.03 0.04 0.05 0.06 0.06 0.08 0.10 0.06 0.07 0.06 0.05
5.09 5.75 5.56 5.00 3.75 3.05 2.23 1.68 1.09 0.74 0.80 0.73 0.73 0.70 0.66 0.60 0.72 0.89 0.74 0.36 0.50 0.63 0.62 0.67 0.53 0.35 0.26 0.21 0.20 0.18 0.14 0.12 0.11 0.09 0.07 0.05 0.03 0.02 0.02 0.01 0.02 0.05 0.08 0.06 0.04 0.04 0.05 0.06 0.08 0.10 0.10 0.13 0.13 0.11
7.75 7.56 4.67 3.93 2.57 1.46 0.87 0.67 0.58 0.42 0.35 0.30 0.45 0.52 0.52 0.62 0.68 0.64 0.35 0.32 0.46 0.56 0.63 0.59 0.50 0.43 0.33 0.28 0.21 0.16 0.16 0.19 0.16 0.15 0.16 0.16 0.09 0.05 0.04 0.03 0.02 0.03 0.03 0.06 0.08 0.09 0.09 0.10 0.13 0.16 0.18 0.21 0.27 0.27
5.43 3.70 2.72 1.32 0.78 0.33 0.30 0.28 0.24 0.18 0.18 0.31 0.40 0.42 0.50 0.58 0.63 0.47 0.23 0.33 0.48 0.60 0.59 0.47 0.34 0.26 0.20 0.19 0.17 0.17 0.13 0.16 0.19 0.22 0.25 0.28 0.27 0.24 0.15 0.09 0.06 0.05 0.05 0.17 0.29 0.31 0.23 0.19 0.19 0.21 0.22 0.23 0.37 0.44
3.04 1.93 0.96 0.35 0.14 0.09 0.11 0.12 0.13 0.16 0.31 0.38 0.36 0.36 0.50 0.76 0.49 0.26 0.27 0.37 0.45 0.54 0.54 0.47 0.30 0.23 0.21 0.22 0.24 0.25 0.23 0.24 0.25 0.20 0.26 0.35 0.35 0.31 0.33 0.39 0.40 0.28 0.39 0.48 0.47 0.47 0.47 0.39 0.34 0.32 0.36 0.33 0.34 0.45
1.17 0.38 0.33 0.28 0.14 0.10 0.13 0.18 0.19 0.22 0.27 0.27 0.24 0.35 0.47 0.38 0.24 0.26 0.33 0.42 0.49 0.51 0.50 0.52 0.43 0.35 0.32 0.30 0.31 0.33 0.35 0.36 0.39 0.40 0.44 0.47 0.47 0.43 0.39 0.52 0.69 0.82 0.85 0.74 0.83 0.87 0.78 0.70 0.61 0.53 0.51 0.52 0.45 0.45
0.49 0.31 0.14 0.19 0.26 0.30 0.26 0.22 0.23 0.23 0.18 0.22 0.25 0.24 0.26 0.19 0.22 0.27 0.32 0.40 0.49 0.51 0.51 0.48 0.48 0.43 0.40 0.39 0.42 0.49 0.49 0.44 0.38 0.41 0.31 0.29 0.34 0.46 0.52 0.56 0.71 0.81 0.79 0.82 0.79 0.87 1.04 1.15 1.05 0.94 0.79 0.65 0.54 0.55
0.33 0.22 0.19 0.20 0.20 0.22 0.20 0.20 0.18 0.20 0.18 0.18 0.15 0.15 0.14 0.18 0.28 0.34 0.38 0.45 0.53 0.57 0.59 0.56 0.52 0.51 0.50 0.48 0.48 0.51 0.54 0.53 0.51 0.51 0.67 0.51 0.37 0.46 0.63 0.73 0.76 0.79 0.88 0.90 0.82 0.83 0.90 0.93 0.89 0.84 0.72 0.66 0.61 0.58
0.24 0.21 0.23 0.25 0.27 0.27 0.30 0.32 0.30 0.23 0.23 0.23 0.23 0.29 0.27 0.28 0.32 0.34 0.35 0.43 0.52 0.57 0.59 0.58 0.56 0.56 0.54 0.57 0.56 0.54 0.56 0.57 0.61 0.61 0.65 0.83 0.84 0.82 0.78 0.81 0.90 1.03 1.03 0.92 0.81 0.73 0.67 0.64 0.60 0.57 0.57 0.56 0.56 0.55
0.35 0.31 0.23 0.25 0.32 0.38 0.39 0.38 0.36 0.32 0.33 0.28 0.29 0.32 0.33 0.30 0.30 0.28 0.31 0.40 0.46 0.48 0.52 0.52 0.44 0.44 0.47 0.49 0.53 0.61 0.66 0.65 0.69 0.77 0.87 1.00 0.98 0.80 0.78 0.85 0.97 1.06 1.02 0.91 0.78 0.71 0.67 0.69 0.71 0.68 0.66 0.62 0.57 0.53
0.56 0.50 0.48 0.44 0.42 0.44 0.44 0.50 0.56 0.49 0.38 0.32 0.30 0.27 0.26 0.25 0.25 0.26 0.30 0.32 0.33 0.37 0.42 0.44 0.48 0.50 0.53 0.55 0.59 0.65 0.71 0.73 0.75 0.95 1.24 1.40 1.53 1.31 1.30 1.12 0.93 0.87 0.82 0.78 0.74 0.78 0.79 0.77 0.73 0.69 0.68 0.63 0.56 0.53

GFSWCAN_prec_precacc_339.txt.gz
Total_Precipitation_Accumulation
2.36 2.36 2.45 2.20 1.92 1.61 1.54 1.41 1.82 2.28 2.11 2.02 2.17 1.88 1.72 1.47 1.55 2.03 1.28 1.16 2.61 3.12 0.91 0.21 0.26 0.64 1.11 1.16 1.51 1.31 1.53 0.95 1.00 1.07 0.92 0.53 0.41 0.32 0.18 0.22 0.24 0.38 0.59 0.44 0.51 0.72 0.31 0.15 0.09 0.23 0.37 0.24 0.13 0.18
2.33 2.13 2.01 2.07 2.23 2.37 1.99 1.95 2.21 2.37 2.02 1.85 1.69 1.55 1.60 1.51 1.56 2.28 1.54 0.92 1.68 2.63 1.64 0.41 0.29 0.26 0.54 0.84 1.35 1.54 1.41 0.79 1.20 1.35 1.10 1.04 0.76 0.39 0.21 0.27 0.04 0.30 0.37 0.56 0.61 0.34 0.17 0.16 0.28 0.32 0.31 0.38 0.24 0.23
2.76 2.42 2.30 2.16 1.94 2.18 2.77 2.94 2.67 2.47 2.05 1.83 1.59 1.54 1.64 1.52 1.53 2.22 1.66 1.41 1.99 2.51 1.48 0.59 0.28 0.11 0.19 0.30 0.67 1.49 1.11 0.91 1.34 1.29 1.96 1.70 1.16 0.46 0.45 0.29 0.22 0.16 0.19 0.57 0.44 0.15 0.13 0.22 0.20 0.18 0.24 0.21 0.08 0.08
3.11 2.68 2.51 2.57 2.56 2.14 2.28 2.92 2.98 2.66 2.29 1.98 1.76 1.66 1.45 1.38 1.59 2.14 1.59 1.25 2.14 3.31 3.05 0.74 0.10 0.06 0.10 0.30 0.51 0.80 1.11 1.21 1.49 1.81 2.56 2.28 1.21 0.50 0.39 0.31 0.35 0.32 0.43 0.47 0.45 0.17 0.26 0.18 0.09 0.12 0.14 0.10 0.05 0.03
3.64 3.37 2.79 2.48 2.66 2.76 2.46 2.39 2.34 2.30 2.23 1.90 1.68 1.66 1.66 1.72 1.96 1.88 1.44 1.30 1.34 2.46 2.70 0.87 0.27 0.11 0.10 0.28 0.53 0.73 1.02 1.62 1.71 2.08 2.18 1.31 0.71 0.76 0.70 0.61 0.57 0.39 0.70 0.82 0.59 0.28 0.54 0.27 0.09 0.08 0.16 0.12 0.11 0.16
4.09 4.23 4.02 3.20 2.60 2.51 2.68 2.34 2.27 2.16 2.10 1.76 1.67 1.74 1.92 2.09 2.54 2.63 3.42 2.03 1.21 1.75 4.59 2.97 0.86 0.26 0.16 0.28 0.56 0.78 0.89 1.16 1.84 2.23 1.78 1.08 0.62 1.41 2.01 0.85 0.36 0.27 0.27 0.47 0.51 0.23 0.24 0.17 0.08 0.04 0.12 0.11 0.16 0.21
3.77 4.12 4.78 4.83 3.69 3.12 3.10 2.47 2.27 2.22 2.19 2.02 2.00 2.01 2.00 2.31 2.42 2.97 3.26 1.78 1.52 2.43 5.24 4.08 1.95 0.71 0.35 0.45 0.79 0.96 1.04 1.20 1.56 2.22 1.67 1.02 0.77 2.04 2.51 0.97 0.19 0.12 0.06 0.05 0.15 0.36 0.31 0.10 0.14 0.08 0.14 0.12 0.10 0.07
3.44 3.62 4.07 5.03 5.11 4.46 3.75 2.98 2.50 2.50 2.51 2.40 2.48 2.49 2.49 2.74 3.04 2.85 2.02 1.72 2.00 3.36 4.38 4.08 2.00 0.87 0.60 0.77 1.08 1.11 1.17 1.34 1.66 1.85 1.37 0.91 1.04 1.70 1.68 0.30 0.10 0.08 0.06 0.04 0.06 0.15 0.28 0.13 0.07 0.09 0.11 0.10 0.09 0.05
3.31 3.23 3.25 3.82 4.19 4.60 4.65 4.30 3.41 3.12 3.15 3.30 3.46 3.43 3.80 3.70 3.02 2.46 2.27 2.57 2.82 4.25 5.85 3.40 1.25 0.90 0.86 0.71 0.92 1.12 1.33 1.87 1.81 1.56 1.27 1.12 1.10 1.19 0.67 0.33 0.17 0.15 0.25 0.22 0.05 0.01 0.02 0.06 0.07 0.06 0.08 0.12 0.19 0.16
2.97 3.00 2.98 3.27 2.94 3.24 4.05 4.40 4.82 4.29 4.31 4.44 4.28 4.72 4.79 3.71 3.09 3.22 4.08 4.98 5.57 5.12 4.08 2.13 0.86 0.96 0.96 0.95 1.44 1.64 1.71 1.65 1.57 1.09 1.26 1.42 0.83 0.39 0.20 0.17 0.22 0.21 0.21 0.22 0.33 0.31 0.30 0.23 0.13 0.10 0.16 0.22 0.31 0.28
2.80 2.81 2.78 3.20 2.78 2.64 3.29 4.81 5.13 5.04 5.34 4.85 4.63 4.06 4.00 3.47 4.03 4.87 5.38 4.79 4.33 3.65 2.41 1.48 1.10 1.04 1.01 1.26 1.54 1.78 1.88 1.57 1.53 0.80 1.20 1.08 0.56 0.19 0.11 0.09 0.06 0.09 0.15 0.20 0.35 0.39 0.44 0.53 0.46 0.35 0.24 0.22 0.21 0.26
2.82 2.94 2.87 3.10 2.69 2.86 3.30 4.22 4.92 5.12 4.99 4.34 3.69 3.71 4.26 4.53 5.07 4.78 3.64 2.37 2.16 1.74 1.37 1.06 0.72 0.81 1.17 1.39 1.94 2.26 1.96 1.63 1.26 0.77 1.27 0.55 0.19 0.05 0.08 0.13 0.17 0.18 0.23 0.26 0.33 0.45 0.47 0.53 0.53 0.46 0.40 0.38 0.38 0.38
2.72 2.81 3.09 3.36 3.01 3.34 3.37 3.53 3.72 4.28 4.36 4.74 4.78 4.97 4.43 3.87 3.53 2.52 1.48 1.05 0.96 0.78 0.75 0.74 0.83 0.97 1.15 1.44 2.26 2.13 2.06 1.47 0.92 1.06 0.68 0.24 0.09 0.12 0.22 0.17 0.12 0.07 0.14 0.30 0.46 0.59 0.53 0.40 0.31 0.40 0.49 0.48 0.49 0.46
2.82 2.72 3.12 3.68 3.68 3.75 3.77 4.01 4.11 4.31 5.06 6.08 5.17 4.52 2.94 2.10 0.97 0.48 0.46 0.51 0.46 0.57 0.66 0.62 0.94 1.02 1.08 1.42 1.68 1.85 1.25 1.15 1.09 0.66 0.26 0.15 0.21 0.29 0.26 0.23 0.24 0.16 0.19 0.37 0.52 0.51 0.44 0.47 0.47 0.45 0.56 0.65 0.64 0.74
3.11 3.27 3.93 4.31 4.11 4.13 3.93 4.30 4.71 4.69 5.50 5.24 4.19 2.69 1.46 0.71 0.46 0.53 0.49 0.51 0.67 0.68 0.74 0.90 1.07 1.03 1.29 1.68 1.46 1.44 1.45 0.88 0.34 0.21 0.21 0.32 0.45 0.55 0.56 0.57 0.54 0.41 0.42 0.57 0.74 0.74 0.70 0.46 0.38 0.58 0.84 0.83 0.67 0.69
3.89 5.06 5.17 4.56 4.11 4.23 4.94 5.56 6.07 5.87 5.74 4.51 3.39 1.83 0.83 0.53 0.57 0.66 0.65 0.72 0.75 0.79 0.95 1.38 1.53 1.52 1.64 1.60 1.46 0.93 0.76 0.41 0.36 0.52 0.65 0.63 0.73 0.82 0.86 0.88 0.94 0.97 0.96 0.89 1.22 1.39 1.10 0.79 0.78 0.80 0.71 0.83 0.81 0.74
5.66 6.23 4.65 3.58 4.18 5.09 5.40 6.05 7.21 6.81 5.75 4.30 1.93 0.88 0.77 0.74 0.81 0.90 0.80 0.80 0.82 1.16 1.24 1.79 2.04 1.26 1.07 1.14 0.53 0.27 0.34 0.34 0.56 0.78 0.90 0.89 0.90 0.79 0.69 0.77 0.93 1.10 1.26 1.08 1.13 1.23 1.36 1.16 0.73 0.40 0.55 0.61 0.51 0.51
5.25 3.58 3.09 3.71 5.16 6.54 8.06 6.89 6.07 5.44 4.01 2.07 0.89 0.58 0.58 0.66 0.69 0.61 0.60 0.72 1.02 1.29 1.38 1.79 1.54 1.39 1.12 0.68 0.36 0.31 0.36 0.40 0.53 0.66 0.86 0.90 0.80 0.81 0.76 0.85 0.89 0.85 0.85 0.78 0.67 0.61 0.48 0.34 0.36 0.46 0.48 0.42 0.33 0.33
3.60 2.85 2.93 3.70 4.19 5.52 6.49 6.01 4.56 3.70 1.81 0.89 0.63 0.52 0.45 0.49 0.48 0.51 0.57 0.75 1.05 1.09 1.33 1.44 1.61 1.12 0.55 0.40 0.39 0.40 0.48 0.54 0.63 0.63 0.76 0.72 0.60 0.56 0.48 0.41 0.39 0.36 0.38 0.36 0.31 0.35 0.31 0.26 0.29 0.25 0.26 0.16 0.14 0.11
4.51 4.58 4.20 4.32 3.97 5.18 5.34 4.53 3.16 1.83 0.99 0.63 0.56 0.47 0.41 0.61 0.53 0.43 0.51 0.64 0.81 1.25 1.79 1.58 0.91 0.63 0.72 0.77 0.77 0.73 0.80 0.79 0.59 0.41 0.43 0.36 0.24 0.12 0.06 0.04 0.05 0.03 0.04 0.04 0.05 0.06 0.06 0.05 0.04 0.04 0.06 0.09 0.09 0.08
8.01 7.10 6.27 5.87 6.37 6.15 4.74 2.81 1.93 1.32 0.74 0.57 0.55 0.42 0.51 0.46 0.53 0.55 0.68 0.78 1.45 1.81 1.38 0.82 0.69 0.78 0.79 0.84 0.97 0.89 0.79 0.52 0.30 0.22 0.16 0.08 0.04 0.02 0.02 0.01 0.02 0.02 0.03 0.02 0.04 0.02 0.05 0.07 0.07 0.04 0.04 0.07 0.07 0.10
6.99 6.57 7.75 7.48 7.36 6.46 4.71 2.69 1.41 0.93 0.73 0.75 0.56 0.54 0.68 0.61 0.55 0.72 1.03 1.45 1.61 1.01 0.74 0.66 0.66 0.72 0.64 0.62 0.53 0.37 0.28 0.12 0.07 0.05 0.05 0.07 0.05 0.03 0.02 0.02 0.04 0.04 0.04 0.05 0.06 0.07 0.06 0.07 0.09 0.07 0.06 0.05 0.06 0.06
5.21 5.38 5.74 5.88 5.71 4.82 3.59 1.76 1.26 1.02 0.73 0.68 0.60 0.73 0.77 0.66 0.63 0.80 1.21 1.12 0.83 0.70 0.63 0.54 0.52 0.40 0.32 0.23 0.16 0.11 0.12 0.12 0.06 0.03 0.02 0.02 0.03 0.03 0.02 0.02 0.04 0.06 0.04 0.03 0.04 0.05 0.06 0.06 0.08 0.10 0.06 0.07 0.06 0.05
5.25 5.87 5.62 5.04 3.78 3.06 2.24 1.69 1.10 0.77 0.83 0.73 0.73 0.70 0.66 0.60 0.72 0.89 0.74 0.36 0.50 0.63 0.62 0.67 0.53 0.35 0.27 0.23 0.26 0.24 0.16 0.13 0.12 0.10 0.07 0.05 0.03 0.02 0.02 0.01 0.02 0.05 0.08 0.06 0.04 0.04 0.05 0.06 0.08 0.10 0.10 0.13 0.13 0.11
7.87 7.64 4.70 3.97 2.59 1.48 0.90 0.71 0.62 0.46 0.36 0.31 0.45 0.52 0.53 0.63 0.68 0.64 0.35 0.32 0.46 0.56 0.63 0.59 0.50 0.43 0.34 0.30 0.22 0.17 0.16 0.20 0.17 0.16 0.17 0.17 0.10 0.05 0.04 0.03 0.02 0.03 0.03 0.06 0.08 0.09 0.09 0.10 0.13 0.16 0.18 0.21 0.27 0.27
5.49 3.73 2.74 1.33 0.79 0.36 0.36 0.33 0.26 0.19 0.19 0.31 0.40 0.42 0.51 0.58 0.64 0.47 0.23 0.33 0.48 0.60 0.59 0.47 0.34 0.26 0.20 0.19 0.17 0.17 0.14 0.17 0.21 0.23 0.27 0.29 0.28 0.25 0.16 0.11 0.07 0.05 0.05 0.17 0.30 0.31 0.23 0.19 0.19 0.21 0.22 0.23 0.38 0.44
3.08 1.95 0.98 0.37 0.17 0.16 0.16 0.13 0.13 0.17 0.31 0.39 0.36 0.36 0.50 0.76 0.49 0.26 0.27 0.37 0.46 0.55 0.55 0.48 0.31 0.24 0.22 0.23 0.25 0.27 0.25 0.26 0.27 0.22 0.27 0.36 0.36 0.33 0.35 0.41 0.42 0.30 0.40 0.48 0.47 0.47 0.48 0.39 0.34 0.32 0.36 0.34 0.34 0.45
1.18 0.38 0.33 0.29 0.17 0.13 0.15 0.18 0.20 0.22 0.27 0.27 0.24 0.35 0.47 0.38 0.24 0.26 0.33 0.42 0.50 0.51 0.52 0.54 0.45 0.36 0.33 0.31 0.33 0.35 0.37 0.38 0.41 0.41 0.46 0.49 0.49 0.45 0.41 0.54 0.71 0.83 0.87 0.76 0.85 0.89 0.79 0.70 0.61 0.53 0.51 0.52 0.45 0.45
0.50 0.31 0.14 0.20 0.27 0.31 0.26 0.22 0.23 0.23 0.18 0.22 0.25 0.24 0.26 0.19 0.22 0.27 0.33 0.42 0.52 0.55 0.54 0.50 0.49 0.44 0.41 0.41 0.44 0.51 0.51 0.46 0.39 0.43 0.33 0.31 0.37 0.49 0.54 0.58 0.73 0.83 0.80 0.83 0.80 0.88 1.07 1.16 1.05 0.94 0.79 0.65 0.54 0.55
0.33 0.22 0.19 0.21 0.20 0.22 0.20 0.20 0.18 0.20 0.18 0.18 0.15 0.15 0.14 0.19 0.29 0.36 0.41 0.48 0.56 0.60 0.61 0.57 0.53 0.51 0.50 0.49 0.48 0.52 0.54 0.54 0.52 0.53 0.69 0.53 0.39 0.48 0.65 0.75 0.78 0.80 0.89 0.91 0.82 0.83 0.91 0.93 0.89 0.84 0.72 0.66 0.61 0.58
0.24 0.22 0.23 0.26 0.27 0.27 0.30 0.32 0.30 0.23 0.23 0.23 0.23 0.30 0.29 0.32 0.35 0.35 0.36 0.45 0.55 0.59 0.60 0.59 0.57 0.56 0.54 0.57 0.56 0.55 0.56 0.57 0.62 0.62 0.66 0.85 0.86 0.84 0.80 0.82 0.91 1.04 1.03 0.92 0.81 0.73 0.67 0.64 0.60 0.57 0.57 0.56 0.56 0.55
0.36 0.31 0.23 0.26 0.32 0.38 0.39 0.38 0.36 0.32 0.33 0.29 0.30 0.33 0.35 0.31 0.31 0.29 0.32 0.41 0.47 0.48 0.53 0.52 0.44 0.44 0.47 0.50 0.54 0.62 0.67 0.65 0.70 0.78 0.89 1.02 1.00 0.83 0.81 0.88 0.98 1.06 1.02 0.91 0.78 0.71 0.67 0.69 0.71 0.68 0.66 0.62 0.57 0.53
0.57 0.51 0.49 0.45 0.42 0.44 0.44 0.50 0.57 0.49 0.39 0.32 0.30 0.27 0.27 0.26 0.26 0.26 0.31 0.33 0.33 0.37 0.42 0.45 0.48 0.50 0.53 0.56 0.60 0.66 0.73 0.74 0.77 0.98 1.28 1.45 1.63 1.34 1.33 1.14 0.94 0.88 0.82 0.78 0.74 0.78 0.79 0.77 0.73 0.69 0.68 0.63 0.56 0.53

GFSWCAN_prec_precacc_342.txt.gz
Total_Precipitation_Accumulation
2.36 2.36 2.45 2.20 1.92 1.61 1.54 1.41 1.82 2.28 2.11 2.02 2.17 1.88 1.72 1.47 1.55 2.03 1.28 1.16 2.61 3.12 0.91 0.21 0.26 0.64 1.12 1.17 1.52 1.31 1.53 0.95 1.00 1.07 0.92 0.53 0.41 0.32 0.18 0.23 0.25 0.39 0.59 0.44 0.51 0.72 0.32 0.16 0.10 0.24 0.40 0.27 0.16 0.20
2.33 2.13 2.01 2.07 2.23 2.37 1.99 1.95 2.21 2.37 2.02 1.85 1.69 1.56 1.60 1.51 1.56 2.28 1.54 0.92 1.68 2.63 1.64 0.41 0.29 0.26 0.54 0.84 1.36 1.54 1.41 0.80 1.20 1.36 1.11 1.04 0.76 0.39 0.21 0.28 0.04 0.30 0.37 0.57 0.61 0.35 0.17 0.16 0.29 0.34 0.33 0.41 0.26 0.24
2.76 2.42 2.30 2.16 1.94 2.18 2.77 2.94 2.67 2.47 2.05 1.84 1.60 1.55 1.64 1.52 1.53 2.22 1.66 1.41 1.99 2.51 1.48 0.59 0.28 0.11 0.19 0.30 0.67 1.49 1.12 0.91 1.34 1.29 1.97 1.71 1.16 0.46 0.46 0.31 0.22 0.17 0.20 0.57 0.45 0.16 0.13 0.22 0.20 0.18 0.24 0.21 0.08 0.08
3.11 2.68 2.51 2.57 2.56 2.14 2.28 2.92 2.98 2.66 2.29 1.98 1.76 1.66 1.45 1.39 1.59 2.14 1.59 1.25 2.14 3.31 3.05 0.74 0.10 0.06 0.10 0.30 0.51 0.80 1.11 1.21 1.49 1.82 2.57 2.29 1.22 0.50 0.40 0.32 0.36 0.32 0.43 0.47 0.45 0.17 0.26 0.18 0.09 0.12 0.14 0.10 0.05 0.03
3.64 3.37 2.79 2.48 2.66 2.76 2.46 2.39 2.34 2.30 2.23 1.90 1.69 1.67 1.67 1.72 1.97 1.88 1.44 1.30 1.34 2.46 2.70 0.87 0.27 0.11 0.10 0.28 0.53 0.73 1.02 1.62 1.72 2.09 2.18 1.32 0.71 0.76 0.70 0.61 0.57 0.39 0.70 0.82 0.60 0.28 0.54 0.27 0.09 0.08 0.16 0.12 0.11 0.16
4.09 4.23 4.02 3.20 2.60 2.51 2.68 2.34 2.27 2.16 2.11 1.77 1.68 1.74 1.92 2.09 2.55 2.63 3.42 2.03 1.21 1.75 4.59 2.97 0.86 0.26 0.16 0.28 0.56 0.78 0.89 1.16 1.84 2.23 1.78 1.08 0.62 1.41 2.02 0.85 0.36 0.27 0.27 0.47 0.51 0.23 0.24 0.17 0.08 0.04 0.12 0.11 0.16 0.21
3.77 4.12 4.78 4.83 3.69 3.12 3.10 2.47 2.27 2.22 2.19 2.02 2.00 2.01 2.00 2.31 2.42 2.97 3.26 1.79 1.52 2.43 5.24 4.08 1.95 0.71 0.35 0.45 0.79 0.96 1.04 1.20 1.56 2.22 1.67 1.02 0.77 2.04 2.52 0.97 0.19 0.12 0.06 0.05 0.15 0.36 0.31 0.10 0.14 0.08 0.14 0.12 0.10 0.07
3.44 3.62 4.07 5.03 5.11 4.46 3.75 2.98 2.50 2.50 2.51 2.40 2.48 2.49 2.50 2.75 3.04 2.85 2.02 1.72 2.00 3.36 4.38 4.08 2.00 0.87 0.60 0.77 1.08 1.11 1.17 1.34 1.66 1.85 1.37 0.91 1.04 1.70 1.68 0.30 0.10 0.08 0.06 0.04 0.06 0.15 0.28 0.13 0.07 0.09 0.11 0.10 0.09 0.05
3.31 3.23 3.25 3.83 4.19 4.60 4.65 4.30 3.41 3.12 3.16 3.30 3.46 3.43 3.80 3.70 3.02 2.46 2.27 2.57 2.82 4.25 5.85 3.40 1.25 0.90 0.86 0.71 0.92 1.12 1.33 1.87 1.82 1.56 1.27 1.12 1.10 1.19 0.67 0.33 0.17 0.15 0.25 0.22 0.05 0.01 0.02 0.06 0.07 0.06 0.08 0.12 0.19 0.16
2.97 3.01 3.00 3.29 2.94 3.24 4.05 4.40 4.82 4.29 4.31 4.44 4.28 4.72 4.79 3.71 3.09 3.22 4.08 4.98 5.57 5.12 4.08 2.13 0.86 0.96 0.96 0.95 1.44 1.64 1.71 1.65 1.57 1.09 1.26 1.42 0.83 0.39 0.20 0.17 0.22 0.21 0.21 0.22 0.33 0.31 0.30 0.23 0.13 0.10 0.16 0.22 0.31 0.28
2.80 2.83 2.80 3.21 2.79 2.64 3.29 4.81 5.13 5.04 5.34 4.85 4.63 4.06 4.00 3.47 4.03 4.87 5.38 4.79 4.33 3.65 2.41 1.48 1.10 1.04 1.01 1.26 1.54 1.78 1.88 1.57 1.53 0.80 1.20 1.08 0.56 0.19 0.11 0.09 0.06 0.09 0.15 0.20 0.35 0.39 0.44 0.53 0.46 0.35 0.24 0.22 0.21 0.26
2.83 2.96 2.89 3.12 2.70 2.86 3.30 4.22 4.92 5.12 4.99 4.34 3.69 3.71 4.26 4.53 5.07 4.78 3.64 2.37 2.16 1.74 1.37 1.06 0.72 0.81 1.17 1.39 1.94 2.26 1.96 1.63 1.26 0.77 1.27 0.55 0.19 0.05 0.08 0.13 0.17 0.18 0.23 0.26 0.33 0.45 0.47 0.53 0.53 0.46 0.40 0.38 0.38 0.38
2.74 2.84 3.12 3.38 3.01 3.34 3.37 3.53 3.72 4.28 4.36 4.74 4.78 4.97 4.43 3.87 3.53 2.52 1.48 1.05 0.96 0.78 0.75 0.74 0.83 0.97 1.15 1.44 2.26 2.13 2.06 1.47 0.92 1.06 0.68 0.24 0.09 0.12 0.22 0.17 0.12 0.07 0.14 0.30 0.46 0.59 0.53 0.40 0.31 0.40 0.49 0.48 0.49 0.46
2.85 2.75 3.15 3.69 3.68 3.76 3.77 4.01 4.11 4.31 5.06 6.08 5.17 4.52 2.94 2.10 0.97 0.48 0.46 0.51 0.46 0.57 0.66 0.62 0.94 1.02 1.08 1.42 1.68 1.85 1.25 1.15 1.09 0.66 0.26 0.15 0.21 0.29 0.26 0.23 0.24 0.16 0.19 0.37 0.52 0.51 0.44 0.47 0.47 0.45 0.56 0.65 0.64 0.74
3.17 3.32 3.96 4.32 4.12 4.14 3.94 4.30 4.71 4.69 5.50 5.24 4.19 2.69 1.46 0.71 0.46 0.53 0.49 0.51 0.67 0.68 0.74 0.90 1.07 1.03 1.29 1.68 1.46 1.44 1.45 0.88 0.34 0.21 0.21 0.32 0.45 0.55 0.56 0.57 0.54 0.41 0.42 0.57 0.74 0.74 0.70 0.46 0.38 0.58 0.84 0.83 0.67 0.69
3.99 5.15 5.21 4.60 4.14 4.26 4.97 5.58 6.08 5.88 5.74 4.51 3.39 1.84 0.83 0.53 0.57 0.66 0.65 0.72 0.75 0.79 0.95 1.38 1.53 1.52 1.64 1.60 1.46 0.93 0.76 0.41 0.36 0.52 0.65 0.63 0.73 0.82 0.86 0.88 0.94 0.97 0.96 0.89 1.22 1.39 1.10 0.79 0.78 0.80 0.71 0.83 0.81 0.74
5.81 6.31 4.69 3.64 4.23 5.14 5.45 6.08 7.23 6.82 5.76 4.30 1.94 0.88 0.78 0.74 0.81 0.90 0.80 0.80 0.82 1.16 1.24 1.79 2.04 1.26 1.07 1.14 0.53 0.27 0.34 0.34 0.56 0.78 0.90 0.89 0.90 0.79 0.69 0.77 0.93 1.10 1.26 1.08 1.13 1.23 1.36 1.16 0.73 0.40 0.55 0.61 0.51 0.51
5.36 3.66 3.19 3.76 5.18 6.58 8.12 6.93 6.10 5.47 4.02 2.08 0.90 0.58 0.58 0.66 0.69 0.61 0.60 0.72 1.02 1.29 1.38 1.79 1.54 1.39 1.12 0.68 0.36 0.31 0.36 0.40 0.53 0.66 0.86 0.90 0.80 0.81 0.76 0.85 0.89 0.85 0.85 0.78 0.67 0.61 0.48 0.34 0.36 0.46 0.48 0.42 0.33 0.33
3.70 2.98 3.06 3.76 4.22 5.58 6.55 6.04 4.57 3.72 1.81 0.89 0.64 0.52 0.45 0.49 0.48 0.51 0.57 0.75 1.06 1.09 1.33 1.44 1.61 1.12 0.55 0.40 0.39 0.40 0.48 0.54 0.63 0.63 0.76 0.72 0.60 0.56 0.48 0.41 0.39 0.36 0.38 0.36 0.31 0.35 0.31 0.26 0.29 0.25 0.26 0.16 0.14 0.11
4.67 4.73 4.35 4.40 4.02 5.24 5.39 4.55 3.16 1.83 1.00 0.63 0.57 0.47 0.41 0.61 0.54 0.43 0.51 0.64 0.81 1.25 1.79 1.58 0.91 0.63 0.72 0.77 0.77 0.73 0.80 0.79 0.59 0.41 0.43 0.36 0.24 0.12 0.06 0.04 0.05 0.03 0.04 0.04 0.05 0.06 0.06 0.05 0.04 0.04 0.06 0.09 0.09 0.08
8.16 7.24 6.46 5.98 6.46 6.19 4.77 2.82 1.93 1.32 0.74 0.57 0.55 0.42 0.51 0.46 0.53 0.55 0.69 0.78 1.46 1.82 1.39 0.82 0.69 0.78 0.79 0.84 0.97 0.89 0.79 0.52 0.30 0.22 0.16 0.08 0.04 0.02 0.02 0.01 0.02 0.02 0.03 0.02 0.04 0.02 0.05 0.07 0.07 0.04 0.04 0.07 0.07 0.10
7.08 6.72 7.91 7.62 7.45 6.51 4.73 2.70 1.42 0.94 0.74 0.76 0.57 0.55 0.68 0.61 0.55 0.72 1.04 1.45 1.61 1.01 0.74 0.66 0.66 0.72 0.64 0.62 0.53 0.37 0.28 0.12 0.07 0.06 0.06 0.08 0.07 0.04 0.04 0.03 0.04 0.04 0.04 0.05 0.06 0.07 0.06 0.07 0.09 0.07 0.06 0.05 0.06 0.06
5.38 5.57 5.89 5.97 5.77 4.86 3.60 1.76 1.27 1.02 0.77 0.73 0.61 0.73 0.77 0.66 0.63 0.81 1.22 1.12 0.83 0.70 0.63 0.54 0.52 0.40 0.32 0.23 0.16 0.11 0.12 0.13 0.08 0.04 0.03 0.04 0.04 0.04 0.03 0.02 0.04 0.06 0.04 0.03 0.04 0.05 0.06 0.06 0.08 0.10 0.06 0.07 0.06 0.05
5.40 6.02 5.72 5.10 3.82 3.07 2.24 1.69 1.11 0.81 0.89 0.77 0.75 0.70 0.66 0.60 0.72 0.89 0.74 0.36 0.50 0.63 0.62 0.67 0.53 0.35 0.27 0.23 0.26 0.24 0.16 0.13 0.12 0.10 0.08 0.06 0.03 0.02 0.03 0.02 0.02 0.05 0.08 0.06 0.04 0.04 0.05 0.06 0.08 0.10 0.10 0.13 0.13 0.11
8.04 7.74 4.76 4.00 2.61 1.49 0.91 0.73 0.65 0.52 0.41 0.32 0.46 0.52 0.53 0.63 0.68 0.64 0.35 0.32 0.46 0.56 0.63 0.59 0.50 0.43 0.34 0.30 0.22 0.17 0.16 0.20 0.17 0.16 0.17 0.18 0.11 0.06 0.04 0.04 0.03 0.04 0.04 0.07 0.09 0.10 0.09 0.10 0.13 0.16 0.18 0.21 0.27 0.27
5.61 3.77 2.76 1.33 0.79 0.37 0.41 0.40 0.31 0.22 0.20 0.32 0.40 0.42 0.51 0.58 0.64 0.47 0.23 0.33 0.48 0.60 0.59 0.47 0.34 0.26 0.21 0.20 0.18 0.17 0.14 0.17 0.22 0.24 0.27 0.30 0.29 0.26 0.17 0.11 0.08 0.06 0.06 0.18 0.31 0.32 0.24 0.19 0.20 0.22 0.23 0.24 0.38 0.44
3.12 1.98 1.01 0.38 0.20 0.23 0.25 0.19 0.17 0.19 0.32 0.39 0.36 0.37 0.50 0.76 0.49 0.26 0.27 0.37 0.46 0.55 0.55 0.49 0.32 0.25 0.23 0.24 0.26 0.28 0.26 0.27 0.28 0.22 0.28 0.37 0.37 0.34 0.37 0.42 0.43 0.31 0.41 0.49 0.48 0.48 0.49 0.40 0.35 0.33 0.37 0.34 0.34 0.45
1.21 0.39 0.34 0.33 0.27 0.22 0.23 0.23 0.22 0.22 0.27 0.27 0.24 0.35 0.47 0.38 0.24 0.26 0.33 0.42 0.50 0.52 0.53 0.55 0.46 0.37 0.34 0.32 0.33 0.35 0.37 0.38 0.41 0.42 0.46 0.49 0.49 0.46 0.41 0.55 0.71 0.84 0.89 0.77 0.86 0.90 0.80 0.71 0.62 0.54 0.51 0.52 0.45 0.45
0.50 0.32 0.17 0.25 0.33 0.36 0.29 0.23 0.23 0.23 0.18 0.22 0.25 0.24 0.26 0.19 0.22 0.27 0.33 0.42 0.52 0.56 0.55 0.51 0.50 0.44 0.41 0.41 0.44 0.51 0.51 0.46 0.39 0.43 0.33 0.31 0.37 0.49 0.54 0.58 0.73 0.84 0.81 0.84 0.81 0.89 1.09 1.17 1.06 0.95 0.79 0.65 0.54 0.55
0.35 0.24 0.23 0.23 0.22 0.23 0.20 0.20 0.18 0.20 0.18 0.18 0.15 0.15 0.14 0.19 0.30 0.36 0.41 0.48 0.56 0.60 0.61 0.57 0.53 0.52 0.50 0.49 0.48 0.52 0.54 0.54 0.52 0.53 0.69 0.53 0.39 0.48 0.66 0.75 0.78 0.81 0.89 0.91 0.83 0.83 0.92 0.94 0.90 0.84 0.72 0.66 0.61 0.58
0.25 0.23 0.24 0.26 0.27 0.27 0.30 0.32 0.30 0.23 0.23 0.23 0.24 0.30 0.30 0.32 0.35 0.36 0.36 0.45 0.55 0.59 0.60 0.59 0.57 0.56 0.54 0.57 0.56 0.55 0.56 0.57 0.62 0.62 0.67 0.85 0.86 0.84 0.81 0.83 0.92 1.05 1.04 0.92 0.81 0.73 0.67 0.64 0.60 0.57 0.57 0.56 0.56 0.55
0.36 0.31 0.23 0.26 0.32 0.38 0.39 0.38 0.36 0.32 0.33 0.29 0.30 0.33 0.35 0.32 0.31 0.29 0.32 0.41 0.47 0.48 0.53 0.52 0.45 0.45 0.47 0.50 0.54 0.62 0.68 0.66 0.70 0.78 0.89 1.02 1.00 0.84 0.83 0.88 0.99 1.07 1.03 0.92 0.78 0.71 0.67 0.69 0.71 0.68 0.66 0.62 0.57 0.53
0.57 0.51 0.49 0.45 0.42 0.44 0.44 0.51 0.57 0.49 0.39 0.32 0.30 0.27 0.27 0.26 0.26 0.27 0.31 0.33 0.33 0.38 0.42 0.45 0.48 0.51 0.53 0.56 0.60 0.66 0.73 0.75 0.78 0.98 1.29 1.46 1.67 1.37 1.33 1.14 0.95 0.89 0.83 0.78 0.74 0.78 0.79 0.77 0.73 0.69 0.68 0.63 0.56 0.53

GFSWCAN_prec_precacc_348.txt.gz
Total_Precipitation_Accumulation
2.36 2.36 2.45 2.20 1.92 1.61 1.54 1.41 1.82 2.28 2.11 2.02 2.17 1.89 1.72 1.47 1.55 2.03 1.28 1.16 2.61 3.12 0.91 0.21 0.26 0.64 1.12 1.17 1.52 1.31 1.53 0.95 1.00 1.07 0.92 0.53 0.41 0.32 0.18 0.23 0.25 0.39 0.59 0.44 0.51 0.72 0.33 0.16 0.10 0.25 0.42 0.31 0.21 0.26
2.33 2.13 2.01 2.07 2.23 2.37 1.99 1.95 2.21 2.37 2.02 1.85 1.69 1.56 1.61 1.52 1.56 2.28 1.54 0.92 1.68 2.63 1.64 0.41 0.29 0.26 0.54 0.84 1.36 1.54 1.41 0.80 1.21 1.37 1.11 1.04 0.76 0.39 0.21 0.29 0.04 0.30 0.37 0.57 0.61 0.35 0.17 0.16 0.29 0.34 0.35 0.43 0.30 0.28
2.76 2.42 2.30 2.16 1.94 2.18 2.77 2.94 2.67 2.47 2.05 1.84 1.60 1.55 1.65 1.53 1.54 2.22 1.66 1.41 1.99 2.51 1.48 0.59 0.28 0.11 0.19 0.30 0.67 1.49 1.12 0.91 1.34 1.29 1.97 1.71 1.17 0.47 0.46 0.31 0.22 0.17 0.20 0.57 0.45 0.16 0.13 0.22 0.20 0.18 0.24 0.22 0.08 0.08
3.11 2.68 2.51 2.57 2.56 2.14 2.28 2.92 2.98 2.66 2.30 1.98 1.77 1.67 1.46 1.40 1.60 2.14 1.59 1.25 2.14 3.31 3.05 0.74 0.10 0.06 0.10 0.30 0.51 0.80 1.11 1.21 1.49 1.82 2.58 2.30 1.22 0.50 0.40 0.32 0.36 0.32 0.43 0.47 0.45 0.17 0.26 0.18 0.09 0.12 0.14 0.10 0.05 0.03
3.64 3.37 2.79 2.48 2.66 2.76 2.46 2.39 2.34 2.30 2.23 1.91 1.69 1.68 1.68 1.74 1.98 1.88 1.44 1.30 1.34 2.46 2.70 0.87 0.27 0.11 0.10 0.28 0.53 0.73 1.02 1.62 1.72 2.10 2.19 1.32 0.72 0.76 0.70 0.61 0.57 0.39 0.70 0.82 0.60 0.28 0.54 0.27 0.09 0.08 0.16 0.12 0.11 0.16
4.09 4.23 4.02 3.20 2.60 2.51 2.68 2.34 2.27 2.16 2.11 1.77 1.68 1.75 1.92 2.10 2.55 2.63 3.42 2.03 1.21 1.75 4.59 2.97 0.86 0.26 0.16 0.28 0.56 0.78 0.89 1.16 1.85 2.24 1.79 1.08 0.62 1.41 2.02 0.85 0.36 0.27 0.27 0.47 0.51 0.23 0.24 0.17 0.08 0.04 0.12 0.11 0.16 0.21
3.77 4.12 4.78 4.83 3.69 3.13 3.10 2.47 2.27 2.22 2.19 2.03 2.01 2.01 2.00 2.32 2.42 2.97 3.26 1.79 1.52 2.43 5.24 4.08 1.95 0.71 0.35 0.45 0.79 0.96 1.04 1.21 1.57 2.23 1.68 1.03 0.77 2.05 2.52 0.97 0.19 0.12 0.06 0.05 0.15 0.36 0.31 0.10 0.14 0.08 0.14 0.12 0.10 0.07
3.44 3.62 4.07 5.03 5.12 4.47 3.75 2.98 2.50 2.50 2.51 2.41 2.48 2.50 2.51 2.75 3.04 2.85 2.02 1.72 2.00 3.36 4.38 4.08 2.00 0.87 0.60 0.77 1.08 1.11 1.17 1.35 1.67 1.85 1.37 0.92 1.04 1.70 1.68 0.30 0.10 0.08 0.06 0.04 0.06 0.15 0.28 0.13 0.07 0.09 0.11 0.10 0.09 0.05
3.31 3.23 3.25 3.83 4.20 4.60 4.65 4.30 3.41 3.12 3.16 3.30 3.46 3.43 3.80 3.70 3.02 2.46 2.27 2.57 2.82 4.25 5.85 3.40 1.25 0.90 0.86 0.71 0.92 1.12 1.33 1.87 1.82 1.57 1.28 1.12 1.10 1.20 0.67 0.33 0.17 0.15 0.25 0.22 0.05 0.01 0.02 0.06 0.07 0.06 0.08 0.12 0.19 0.16
2.97 3.01 3.00 3.29 2.94 3.25 4.05 4.40 4.82 4.29 4.31 4.44 4.28 4.72 4.79 3.71 3.09 3.22 4.08 4.98 5.57 5.12 4.08 2.13 0.86 0.96 0.96 0.95 1.44 1.64 1.71 1.65 1.57 1.09 1.26 1.42 0.83 0.39 0.20 0.17 0.22 0.21 0.21 0.22 0.33 0.31 0.30 0.23 0.13 0.10 0.16 0.22 0.31 0.28
2.81 2.83 2.80 3.21 2.80 2.65 3.30 4.82 5.13 5.04 5.34 4.85 4.63 4.06 4.00 3.47 4.03 4.87 5.38 4.79 4.33 3.65 2.41 1.48 1.10 1.04 1.01 1.26 1.54 1.78 1.88 1.57 1.53 0.80 1.20 1.08 0.56 0.19 0.11 0.09 0.06 0.09 0.15 0.20 0.35 0.39 0.44 0.53 0.46 0.35 0.24 0.22 0.21 0.26
2.84 2.96 2.90 3.12 2.71 2.88 3.31 4.24 4.93 5.12 4.99 4.34 3.69 3.71 4.26 4.53 5.07 4.78 3.64 2.37 2.16 1.74 1.37 1.06 0.72 0.81 1.17 1.39 1.94 2.26 1.96 1.63 1.26 0.77 1.27 0.55 0.19 0.05 0.08 0.13 0.17 0.18 0.23 0.26 0.33 0.45 0.47 0.53 0.53 0.46 0.40 0.38 0.38 0.38
2.74 2.85 3.13 3.39 3.04 3.38 3.40 3.56 3.74 4.29 4.36 4.74 4.78 4.97 4.43 3.87 3.53 2.52 1.48 1.05 0.96 0.78 0.75 0.74 0.83 0.97 1.15 1.44 2.26 2.13 2.06 1.47 0.92 1.06 0.68 0.24 0.09 0.12 0.22 0.17 0.12 0.07 0.14 0.30 0.46 0.59 0.53 0.40 0.31 0.40 0.49 0.48 0.49 0.46
2.86 2.77 3.17 3.72 3.72 3.80 3.83 4.07 4.14 4.33 5.07 6.09 5.17 4.52 2.94 2.10 0.97 0.48 0.46 0.51 0.46 0.57 0.66 0.62 0.94 1.02 1.08 1.42 1.68 1.85 1.25 1.15 1.09 0.66 0.26 0.15 0.21 0.29 0.26 0.23 0.24 0.16 0.19 0.37 0.52 0.51 0.44 0.47 0.47 0.45 0.56 0.65 0.64 0.74
3.19 3.36 4.02 4.39 4.21 4.26 4.05 4.39 4.77 4.71 5.53 5.28 4.21 2.71 1.47 0.72 0.47 0.54 0.49 0.51 0.67 0.68 0.74 0.90 1.07 1.03 1.29 1.68 1.46 1.44 1.45 0.88 0.34 0.21 0.21 0.32 0.45 0.55 0.56 0.57 0.54 0.41 0.42 0.57 0.74 0.74 0.70 0.46 0.38 0.58 0.84 0.83 0.67 0.69
4.08 5.32 5.34 4.69 4.36 4.51 5.15 5.69 6.20 5.95 5.79 4.54 3.40 1.85 0.86 0.59 0.61 0.72 0.70 0.75 0.76 0.79 0.95 1.39 1.53 1.52 1.64 1.60 1.46 0.93 0.76 0.41 0.36 0.52 0.65 0.63 0.73 0.82 0.86 0.88 0.94 0.97 0.96 0.89 1.22 1.39 1.10 0.79 0.78 0.80 0.71 0.83 0.81 0.74
6.10 6.44 4.77 3.87 4.61 5.49 5.64 6.26 7.37 6.92 5.83 4.32 1.94 0.89 0.81 0.81 0.88 0.97 0.86 0.84 0.83 1.16 1.25 1.80 2.04 1.26 1.07 1.14 0.53 0.27 0.34 0.34 0.56 0.78 0.90 0.89 0.90 0.79 0.69 0.77 0.93 1.10 1.26 1.08 1.13 1.23 1.36 1.16 0.73 0.40 0.55 0.61 0.51 0.51
5.64 3.75 3.46 4.15 5.61 6.91 8.39 7.13 6.22 5.60 4.06 2.08 0.90 0.59 0.64 0.77 0.80 0.69 0.67 0.76 1.04 1.32 1.41 1.81 1.55 1.40 1.12 0.68 0.36 0.31 0.36 0.40 0.53 0.66 0.86 0.90 0.80 0.81 0.76 0.85 0.89 0.85 0.85 0.78 0.68 0.62 0.49 0.34 0.36 0.46 0.48 0.42 0.33 0.33
3.91 3.26 3.59 4.20 4.57 5.84 6.75 6.19 4.64 3.79 1.82 0.89 0.66 0.57 0.54 0.60 0.57 0.61 0.65 0.81 1.10 1.14 1.37 1.47 1.63 1.13 0.55 0.40 0.39 0.40 0.48 0.54 0.63 0.63 0.76 0.72 0.60 0.56 0.48 0.41 0.39 0.37 0.39 0.38 0.33 0.36 0.31 0.26 0.29 0.25 0.26 0.16 0.14 0.11
5.05 5.18 4.84 4.77 4.32 5.49 5.59 4.71 3.21 1.84 1.00 0.64 0.58 0.51 0.50 0.67 0.59 0.49 0.58 0.70 0.87 1.31 1.83 1.61 0.91 0.63 0.72 0.77 0.77 0.73 0.80 0.79 0.59 0.41 0.43 0.36 0.24 0.12 0.07 0.04 0.06 0.05 0.06 0.06 0.07 0.08 0.08 0.05 0.04 0.04 0.06 0.09 0.09 0.08
8.62 7.72 7.00 6.34 6.79 6.41 4.94 2.92 1.97 1.33 0.76 0.62 0.57 0.46 0.57 0.48 0.55 0.58 0.72 0.83 1.51 1.84 1.40 0.83 0.69 0.78 0.79 0.84 0.97 0.89 0.79 0.52 0.30 0.22 0.16 0.08 0.04 0.03 0.02 0.03 0.04 0.04 0.05 0.04 0.05 0.03 0.06 0.07 0.07 0.04 0.04 0.07 0.07 0.10
7.49 7.21 8.32 8.04 7.75 6.73 4.90 2.79 1.45 0.96 0.82 0.87 0.63 0.61 0.76 0.64 0.55 0.72 1.05 1.46 1.62 1.01 0.74 0.66 0.66 0.72 0.64 0.62 0.53 0.37 0.28 0.12 0.07 0.06 0.07 0.09 0.08 0.05 0.04 0.04 0.06 0.05 0.05 0.06 0.07 0.08 0.06 0.07 0.09 0.07 0.06 0.05 0.06 0.06
5.87 6.11 6.35 6.35 6.05 5.08 3.72 1.79 1.28 1.07 0.92 0.91 0.68 0.78 0.81 0.67 0.63 0.81 1.22 1.12 0.83 0.70 0.63 0.54 0.52 0.40 0.32 0.23 0.16 0.11 0.12 0.13 0.08 0.04 0.04 0.05 0.04 0.04 0.04 0.04 0.07 0.08 0.05 0.04 0.06 0.06 0.07 0.06 0.09 0.11 0.06 0.07 0.06 0.05
5.90 6.54 6.14 5.41 4.05 3.19 2.29 1.70 1.15 0.90 1.07 0.92 0.86 0.76 0.69 0.61 0.72 0.90 0.74 0.36 0.50 0.63 0.62 0.67 0.53 0.35 0.27 0.23 0.26 0.24 0.16 0.13 0.12 0.10 0.09 0.08 0.04 0.03 0.04 0.03 0.04 0.07 0.10 0.07 0.05 0.06 0.07 0.07 0.10 0.12 0.11 0.14 0.14 0.12
8.65 8.21 5.07 4.21 2.70 1.52 0.93 0.78 0.75 0.68 0.55 0.42 0.55 0.56 0.55 0.64 0.70 0.64 0.35 0.32 0.46 0.56 0.63 0.59 0.50 0.43 0.34 0.30 0.22 0.17 0.17 0.21 0.18 0.17 0.17 0.19 0.12 0.06 0.05 0.05 0.04 0.06 0.06 0.09 0.11 0.12 0.11 0.12 0.15 0.18 0.20 0.23 0.29 0.29
6.04 4.07 2.97 1.42 0.83 0.40 0.50 0.56 0.43 0.31 0.29 0.38 0.45 0.44 0.53 0.61 0.65 0.47 0.23 0.33 0.48 0.60 0.59 0.47 0.34 0.26 0.21 0.21 0.19 0.18 0.15 0.18 0.22 0.24 0.27 0.31 0.30 0.27 0.18 0.12 0.09 0.07 0.08 0.20 0.32 0.34 0.26 0.21 0.21 0.23 0.25 0.26 0.40 0.46
3.36 2.16 1.12 0.42 0.27 0.36 0.41 0.31 0.27 0.27 0.37 0.43 0.39 0.40 0.55 0.79 0.49 0.26 0.27 0.38 0.46 0.55 0.55 0.49 0.32 0.25 0.24 0.24 0.26 0.28 0.26 0.27 0.28 0.23 0.28 0.37 0.38 0.35 0.38 0.43 0.44 0.32 0.42 0.50 0.49 0.50 0.50 0.42 0.37 0.35 0.38 0.36 0.36 0.46
1.33 0.47 0.44 0.49 0.49 0.43 0.41 0.35 0.30 0.27 0.31 0.31 0.28 0.38 0.49 0.39 0.24 0.26 0.34 0.42 0.50 0.52 0.53 0.56 0.47 0.38 0.34 0.32 0.33 0.36 0.37 0.38 0.41 0.42 0.46 0.50 0.50 0.46 0.42 0.55 0.72 0.85 0.90 0.78 0.87 0.91 0.81 0.72 0.63 0.56 0.53 0.53 0.46 0.46
0.60 0.44 0.31 0.43 0.51 0.52 0.39 0.29 0.27 0.25 0.20 0.26 0.28 0.25 0.27 0.19 0.22 0.28 0.33 0.42 0.53 0.56 0.56 0.52 0.50 0.44 0.41 0.41 0.44 0.51 0.51 0.46 0.39 0.43 0.33 0.31 0.37 0.49 0.54 0.59 0.74 0.84 0.82 0.85 0.82 0.91 1.14 1.20 1.07 0.96 0.80 0.65 0.55 0.55
0.48 0.37 0.36 0.32 0.29 0.27 0.22 0.22 0.19 0.21 0.18 0.19 0.16 0.15 0.15 0.19 0.31 0.37 0.42 0.50 0.58 0.62 0.62 0.59 0.54 0.52 0.51 0.49 0.48 0.52 0.55 0.54 0.52 0.53 0.69 0.53 0.39 0.49 0.66 0.76 0.79 0.81 0.90 0.92 0.84 0.84 0.94 0.96 0.91 0.85 0.72 0.66 0.61 0.58
0.29 0.26 0.26 0.27 0.27 0.27 0.30 0.32 0.30 0.23 0.23 0.23 0.24 0.31 0.31 0.34 0.38 0.37 0.37 0.47 0.57 0.61 0.62 0.61 0.58 0.57 0.55 0.58 0.57 0.55 0.57 0.58 0.62 0.63 0.68 0.86 0.87 0.85 0.82 0.85 0.93 1.06 1.05 0.93 0.82 0.74 0.67 0.65 0.60 0.57 0.57 0.56 0.56 0.55
0.36 0.31 0.24 0.26 0.32 0.38 0.39 0.38 0.36 0.32 0.33 0.29 0.30 0.34 0.36 0.34 0.34 0.31 0.33 0.43 0.49 0.51 0.57 0.55 0.47 0.47 0.49 0.51 0.55 0.64 0.70 0.67 0.71 0.79 0.90 1.03 1.01 0.85 0.85 0.90 1.00 1.09 1.04 0.94 0.79 0.72 0.67 0.70 0.71 0.68 0.66 0.62 0.57 0.53
0.57 0.51 0.49 0.45 0.42 0.44 0.44 0.51 0.57 0.49 0.39 0.33 0.30 0.28 0.28 0.28 0.28 0.29 0.33 0.36 0.37 0.41 0.46 0.48 0.52 0.54 0.56 0.59 0.62 0.68 0.75 0.76 0.79 1.00 1.31 1.49 1.71 1.44 1.37 1.15 0.95 0.90 0.84 0.80 0.76 0.79 0.79 0.78 0.73 0.69 0.68 0.63 0.56 0.53